User: anonymous   Login
Location: ????
(55.2778°N, 39.2433°E)
Time: 18:24:55
(UTC+00:00)
Language:

Cosmos 1484 Rocket - Orbit

View from above orbital plane
View from above orbital plane
View from above satellite
View from above satellite

Ground track
Ground track

The orbit data is extracted from the following two-line orbital elements,

1 14208U 83075B   24170.89623150  .00006635  00000-0  29358-3 0  9996
2 14208  97.5681 150.2023 0029178 293.9128  65.9052 15.21636975234288
Epoch (UTC): 18 June 2024 21:30:34
Eccentricity: 0.0029178
inclination: 97.5681°
perigee height: 481 km
apogee height: 521 km
right ascension of ascending node: 150.2023°
argument of perigee: 293.9128°
revolutions per day: 15.21636975
mean anomaly at epoch: 65.9052°
orbit number at epoch: 23428

The dashed part of the orbit path shows where the satellite is in the earth's shadow,  

DLR